Joplin, MO

1:03 AM CDT on October 23, 2019 (GMT -0500)
Joplin Regional

Weather History for KJLN - August, 2019

Change the Weather History Date:

Tuesday, August 27, 2019

  Actual Average Record
Temperature  
Mean Temperature 74 °F 78 °F  
Max Temperature 82 °F 90 °F 103 °F (1954)
Min Temperature 66 °F 67 °F 52 °F (1962)
Degree Days  
Heating Degree Days 0 0  
Month to date heating degree days 0 0  
Since 1 June heating degree days 1 5  
Since 1 July heating degree days 0 0  
Cooling Degree Days 10 13  
Month to date cooling degree days 370 408  
Year to date cooling degree days 1221 1379  
Since 1 June cooling degree days 1068 1199  
Growing Degree Days 24 (Base 50)    
Moisture  
Dew Point 67 °F    
Average Humidity 82    
Maximum Humidity 100    
Minimum Humidity 51    
Precipitation  
Precipitation 0.00 in 0.12 in 1.66 in (1978)
Month to date precipitation 5.39 2.85  
Year to date precipitation 48.30 30.47  
Sea Level Pressure  
Sea Level Pressure 29.97 in    
Wind  
Wind Speed 4 mph ()    
Max Wind Speed 14 mph    
Max Gust Speed 19 mph    
Visibility 10.0 miles    
Events      
T = Trace of Precipitation, MM = Missing Value Source: Averaged Metar Reports

Daily Weather History Graph

Daily Weather History Graph

Search for Another Location

Airport or City:

Astronomy

Aug. 27, 2019 Rise Set
Actual Time 6:44 AM CDT 7:54 PM CDT
Civil Twilight 6:17 AM CDT 8:20 PM CDT
Nautical Twilight 5:45 AM CDT 8:52 PM CDT
Astronomical Twilight 5:11 AM CDT 9:26 PM CDT
Moon 3:14 AM CDT (8/27) 6:11 PM CDT (8/27)
Length of Visible Light 14h 03m
Length of Day
13h 09m
Waning Crescent, 11% of the Moon is Illuminated
Aug 27
Waning Crescent
Aug 30
New
Sep 5
First Quarter
Sep 13
Full
Sep 21
Last Quarter

Hourly Weather History & Observations

Time (CDT) Temp. Heat Index Dew Point Humidity Pressure Visibility Wind Dir Wind Speed Gust Speed Precip Events Conditions
12:12 AM 72.0 °F - 71.1 °F 97% 29.85 in 10.0 mi Variable 3.5 mph - N/A   Scattered Clouds
12:29 AM 73.0 °F - 71.1 °F 93% 29.86 in 10.0 mi Calm Calm - N/A   Mostly Cloudy
12:53 AM 73.0 °F - 71.1 °F 93% 29.86 in 10.0 mi Calm Calm - N/A   Overcast
1:30 AM 71.6 °F - 71.6 °F 100% 29.90 in 10.0 mi NW 5.8 mph - N/A   Scattered Clouds
1:53 AM 72.0 °F - 71.1 °F 97% 29.86 in 10.0 mi Calm Calm - N/A   Clear
2:53 AM 71.1 °F - 70.0 °F 96% 29.88 in 10.0 mi NNW 4.6 mph - N/A   Mostly Cloudy
4:53 AM 70.0 °F - 68.0 °F 93% 29.90 in 10.0 mi North 6.9 mph - N/A   Overcast
5:32 AM 69.1 °F - 68.0 °F 96% 29.93 in 10.0 mi NNE 6.9 mph - N/A   Scattered Clouds
5:53 AM 69.1 °F - 68.0 °F 96% 29.91 in 10.0 mi NNE 3.5 mph - N/A   Mostly Cloudy
6:53 AM 68.0 °F - 66.9 °F 96% 29.95 in 10.0 mi Calm Calm - N/A   Mostly Cloudy
7:53 AM 69.1 °F - 68.0 °F 96% 29.97 in 10.0 mi Calm Calm - N/A   Mostly Cloudy
8:53 AM 71.1 °F - 69.1 °F 93% 29.97 in 10.0 mi North 6.9 mph - N/A   Overcast
9:53 AM 73.0 °F - 69.1 °F 87% 30.00 in 10.0 mi Variable 4.6 mph - N/A   Mostly Cloudy
10:23 AM 75.9 °F - 70.0 °F 82% 30.02 in 10.0 mi NNE 3.5 mph - N/A   Mostly Cloudy
10:53 AM 78.1 °F - 69.1 °F 74% 30.01 in 10.0 mi North 4.6 mph - N/A   Mostly Cloudy
11:53 AM 80.1 °F 82.7 °F 68.0 °F 67% 30.01 in 10.0 mi North 6.9 mph - N/A   Scattered Clouds
12:53 PM 80.1 °F 82.7 °F 68.0 °F 67% 30.02 in 10.0 mi NW 8.1 mph - N/A   Scattered Clouds
1:53 PM 82.0 °F 84.5 °F 66.9 °F 60% 30.02 in 10.0 mi NW 10.4 mph - N/A   Partly Cloudy
2:53 PM 81.0 °F 82.5 °F 64.0 °F 56% 30.01 in 10.0 mi NNW 6.9 mph - N/A   Clear
3:53 PM 82.0 °F 83.1 °F 63.0 °F 52% 30.00 in 10.0 mi North 11.5 mph - N/A   Clear
4:53 PM 81.0 °F 81.9 °F 62.1 °F 52% 30.01 in 10.0 mi NNW 12.7 mph - N/A   Clear
5:53 PM 78.1 °F - 63.0 °F 60% 30.01 in 10.0 mi North 8.1 mph - N/A   Clear
7:53 PM 72.0 °F - 62.1 °F 71% 30.01 in 10.0 mi North 5.8 mph - N/A   Clear
8:53 PM 70.0 °F - 62.1 °F 76% 30.02 in 10.0 mi NNE 3.5 mph - N/A   Clear
9:53 PM 66.9 °F - 63.0 °F 87% 30.06 in 10.0 mi Calm Calm - N/A   Clear
11:53 PM 66.9 °F - 64.9 °F 93% 30.08 in 10.0 mi Calm Calm - N/A   Clear